Flag for U.S.A. Weather past 2 weeks in Jackson, Mississippi, U.S.A.

Now
80 °F

Sunny.


Feels Like: 83 °F
Forecast: 71 / 92 °F
Wind: 5 mph from Northwest

Location: Hawkins Field

Current Time: Jul 12, 2014 at 10:00:23 AM

Latest Report: Jul 12, 2014 at 8:53 AM


Visibility: 10 mi

Pressure: 30.15 "Hg

Humidity: 71%

Dew point: 70 °F

Location of JacksonLocation

Historic Weather in Jackson — Graph

°F

Jackson temperature yesterday

Maximum temperature yesterday: 88 °F (at 10:53 AM)
Minimum temperature yesterday: 73 °F (at 3:53 AM)
Average temperature yesterday: 78 °F

Past Weeks' High & Low Weather Summary

 TemperatureHumidityPressure
High93 °F (Jul 2, 2:53 PM)91% (Jul 12, 12:53 AM)30.22 "Hg (Jul 12, 12:53 AM)
Low65 °F (Jul 5, 4:53 AM)36% (Jul 6, 3:53 PM)29.91 "Hg (Jul 1, 2:53 AM)
Average80 °F69%30.05 "Hg
* Reported Jun 27 12:53 PM — Jul 12 8:53 AM, Jackson, Weather by CustomWeather, © 2014

Note: Actual official high and low records may vary slightly from our data, if they occured in-between our weather recording intervals... More about our weather records

Advertising

Jackson weather history for previous 24 hours

 ConditionsComfort  
Time TempWeatherWind HumidityBarometerVisibility
8:53 AM
Jul 12
80 °FSunny.5 mph71%30.15 "Hg10 mi
7:53 AM76 °FSunny.5 mph80%30.14 "Hg10 mi
6:53 AM73 °FClear.No wind84%30.14 "Hg10 mi
5:53 AM72 °FClear.3 mph91%30.14 "Hg10 mi
4:53 AM72 °FClear.No wind91%30.12 "Hg10 mi
3:53 AM72 °FClear.No wind91%30.11 "Hg7 mi
2:53 AM73 °FClear.No wind90%30.11 "Hg10 mi
1:53 AM74 °FClear.No wind88%30.10 "Hg10 mi
12:53 AM74 °FClear.No wind91%30.12 "Hg8 mi
11:53 PM
Jul 11
75 °FClear.No wind88%30.12 "Hg10 mi
10:53 PM76 °FClear.No wind88%30.12 "Hg10 mi
9:53 PM77 °FClear.No wind88%30.11 "Hg10 mi
8:53 PM78 °FSunny.No wind87%30.11 "Hg10 mi
7:53 PM80 °FSunny.No wind81%30.11 "Hg10 mi
6:53 PM82 °FThunderstorms. Passing clouds.No wind74%30.11 "Hg10 mi
5:53 PM82 °FThunderstorms. Sunny.3 mph74%30.08 "Hg10 mi
4:53 PM78 °FPassing clouds.No wind79%30.10 "Hg10 mi
3:53 PM74 °FLight rain. Cloudy.8 mph82%30.13 "Hg7 mi
2:53 PM77 °FLight rain. Mostly cloudy.16 mph82%30.12 "Hg2 mi
1:53 PM83 °FScattered clouds.10 mph77%30.11 "Hg10 mi
12:53 PM79 °FLight rain. Broken clouds.No wind77%30.12 "Hg6 mi
11:53 AM88 °FBroken clouds.5 mph61%30.14 "Hg10 mi
10:53 AM88 °FSunny.5 mph61%30.14 "Hg10 mi
Weather by CustomWeather, © 2014

See weather overviewHow to use our weather pages